Weather History for Corvallis, OR

Change the Weather History Date:

Thursday, July 18, 2013

  Actual Average Record
Temperature  
Mean Temperature 70 °F -  
Max Temperature 89 °F 83 °F 100 °F (2005)
Min Temperature 51 °F 53 °F 48 °F (1999)
Cooling Degree Days 5    
Growing Degree Days 20 (Base 50)    
Moisture  
Dew Point 52 °F    
Average Humidity 60    
Maximum Humidity 88    
Minimum Humidity 24    
Precipitation  
Precipitation 0.00 in - - ()
Sea Level Pressure  
Sea Level Pressure 30.15 in    
Wind  
Wind Speed 10 mph (NW)    
Max Wind Speed 20 mph    
Max Gust Speed 23 mph    
Visibility 10 miles    
Events      
Averages and records for this station are not official NWS values.
T = Trace of Precipitation, MM = Missing Value Source: NWS Daily Summary

Daily Weather History Graph

Daily Weather History Graph

Search for Another Location

Airport:

Trip Planner

Search our weather history database for the weather conditions in past years. The results will help you decide how hot, cold, wet, or windy it might be!

Date:

Astronomy

Jul. 18, 2013 Rise Set
Actual Time 5:45 AM PDT 8:52 PM PDT
Civil Twilight 5:10 AM PDT 9:27 PM PDT
Nautical Twilight 4:25 AM PDT 10:12 PM PDT
Astronomical Twilight 3:30 AM PDT 11:06 PM PDT
Moon 4:54 PM PDT (7/18) 1:42 AM PDT (7/18)
Length of Visible Light 16h 16m
Length of Day
15h 06m
Waxing Gibbous, 78% of the Moon is Illuminated
Jul 18
Waxing Gibbous
Jul 22
Full
Jul 29
Last Quarter
Aug 6
New
Aug 14
First Quarter

Hourly Weather History & Observations

Time (PDT) Temp. Heat Index Dew Point Humidity Pressure Visibility Wind Dir Wind Speed Gust Speed Precip Events Conditions
12:15 AM 57.2 °F - 50.0 °F 77% 30.18 in 10.0 mi WNW 12.7 mph - N/A   Clear
12:35 AM 57.2 °F - 50.0 °F 77% 30.18 in 10.0 mi WNW 10.4 mph - N/A   Clear
12:55 AM 57.2 °F - 50.0 °F 77% 30.18 in 10.0 mi West 12.7 mph - N/A   Clear
1:15 AM 57.2 °F - 50.0 °F 77% 30.17 in 10.0 mi WNW 12.7 mph - N/A   Clear
1:35 AM 57.2 °F - 48.2 °F 72% 30.17 in 10.0 mi WNW 10.4 mph - N/A   Clear
1:55 AM 55.4 °F - 48.2 °F 77% 30.18 in 10.0 mi WNW 11.5 mph - N/A   Clear
2:15 AM 55.4 °F - 48.2 °F 77% 30.18 in 10.0 mi West 10.4 mph - N/A   Clear
2:35 AM 55.4 °F - 48.2 °F 77% 30.18 in 10.0 mi WNW 6.9 mph - N/A   Clear
2:55 AM 55.4 °F - 48.2 °F 77% 30.18 in 10.0 mi WNW 5.8 mph - N/A   Clear
3:15 AM 55.4 °F - 48.2 °F 77% 30.18 in 10.0 mi WNW 5.8 mph - N/A   Clear
3:35 AM 55.4 °F - 48.2 °F 77% 30.19 in 10.0 mi WNW 5.8 mph - N/A   Clear
3:55 AM 53.6 °F - 48.2 °F 82% 30.18 in 10.0 mi West 8.1 mph - N/A   Clear
4:15 AM 53.6 °F - 48.2 °F 82% 30.18 in 10.0 mi West 5.8 mph - N/A   Clear
4:35 AM 53.6 °F - 48.2 °F 82% 30.18 in 10.0 mi West 6.9 mph - N/A   Clear
4:55 AM 53.6 °F - 48.2 °F 82% 30.19 in 10.0 mi West 9.2 mph - N/A   Clear
5:15 AM 51.8 °F - 48.2 °F 88% 30.19 in 10.0 mi WNW 6.9 mph - N/A   Clear
5:35 AM 51.8 °F - 48.2 °F 88% 30.19 in 10.0 mi WNW 5.8 mph - N/A   Clear
5:55 AM 51.8 °F - 48.2 °F 88% 30.20 in 10.0 mi WNW 6.9 mph - N/A   Clear
6:15 AM 51.8 °F - 48.2 °F 88% 30.20 in 10.0 mi WNW 4.6 mph - N/A   Clear
6:35 AM 53.6 °F - 48.2 °F 82% 30.20 in 10.0 mi NW 3.5 mph - N/A   Clear
6:55 AM 53.6 °F - 50.0 °F 88% 30.21 in 10.0 mi West 4.6 mph - N/A   Clear
7:15 AM 55.4 °F - 51.8 °F 88% 30.21 in 10.0 mi WNW 3.5 mph - N/A   Clear
7:35 AM 57.2 °F - 51.8 °F 82% 30.21 in 10.0 mi WNW 3.5 mph - N/A   Clear
7:55 AM 60.8 °F - 51.8 °F 72% 30.21 in 10.0 mi Calm Calm - N/A   Clear
8:15 AM 60.8 °F - 53.6 °F 77% 30.21 in 10.0 mi North 4.6 mph - N/A   Clear
8:35 AM 62.6 °F - 53.6 °F 72% 30.21 in 10.0 mi NNE 9.2 mph - N/A   Clear
8:55 AM 64.4 °F - 53.6 °F 68% 30.21 in 10.0 mi North 9.2 mph - N/A   Partly Cloudy
9:15 AM 64.4 °F - 53.6 °F 68% 30.21 in 10.0 mi North 5.8 mph - N/A   Clear
9:35 AM 66.2 °F - 53.6 °F 64% 30.20 in 10.0 mi North 9.2 mph - N/A   Clear
9:55 AM 66.2 °F - 53.6 °F 64% 30.20 in 10.0 mi North 4.6 mph - N/A   Clear
10:15 AM 68.0 °F - 55.4 °F 64% 30.19 in 10.0 mi Calm Calm - N/A   Clear
10:35 AM 69.8 °F - 53.6 °F 56% 30.19 in 10.0 mi East 3.5 mph - N/A   Clear
10:55 AM 71.6 °F - 55.4 °F 57% 30.18 in 10.0 mi North 8.1 mph - N/A   Clear
11:15 AM 73.4 °F - 55.4 °F 53% 30.18 in 10.0 mi NE 5.8 mph - N/A   Clear
11:35 AM 73.4 °F - 55.4 °F 53% 30.18 in 10.0 mi NNE 4.6 mph - N/A   Clear
11:55 AM 75.2 °F - 55.4 °F 50% 30.17 in 10.0 mi North 4.6 mph - N/A   Clear
12:15 PM 75.2 °F - 55.4 °F 50% 30.17 in 10.0 mi NW 5.8 mph - N/A   Clear
12:35 PM 78.8 °F - 55.4 °F 44% 30.16 in 10.0 mi NE 3.5 mph - N/A   Clear
12:55 PM 80.6 °F 80.5 °F 55.4 °F 42% 30.16 in 10.0 mi NW 4.6 mph - N/A   Clear
1:15 PM 78.8 °F - 55.4 °F 44% 30.15 in 10.0 mi WNW 3.5 mph - N/A   Clear
1:55 PM 82.4 °F 81.7 °F 55.4 °F 39% 30.14 in 10.0 mi NE 8.1 mph - N/A   Unknown
2:15 PM 84.2 °F 83.0 °F 55.4 °F 37% 30.13 in 10.0 mi East 3.5 mph 16.1 mph N/A   Clear
2:35 PM 84.2 °F 83.0 °F 55.4 °F 37% 30.12 in 10.0 mi North 8.1 mph - N/A   Clear
2:55 PM 86.0 °F 84.2 °F 53.6 °F 33% 30.12 in 10.0 mi NNE 6.9 mph - N/A   Clear
3:15 PM 87.8 °F - 51.8 °F 29% 30.11 in 10.0 mi North 9.2 mph - N/A   Clear
3:35 PM 87.8 °F - 51.8 °F 29% 30.10 in 10.0 mi NE 11.5 mph - N/A   Clear
3:55 PM 89.6 °F - 50.0 °F 26% 30.09 in 10.0 mi North 11.5 mph 19.6 mph N/A   Clear
4:15 PM 89.6 °F - 48.2 °F 24% 30.08 in 10.0 mi NNE 12.7 mph 16.1 mph N/A   Clear
4:35 PM 89.6 °F - 48.2 °F 24% 30.08 in 10.0 mi North 12.7 mph - N/A   Clear
4:55 PM 87.8 °F 86.5 °F 57.2 °F 35% 30.08 in 10.0 mi WNW 12.7 mph - N/A   Clear
5:15 PM 86.0 °F 84.9 °F 57.2 °F 37% 30.08 in 10.0 mi WNW 13.8 mph - N/A   Clear
5:35 PM 84.2 °F 83.5 °F 57.2 °F 40% 30.08 in 10.0 mi WNW 11.5 mph - N/A   Clear
5:55 PM 84.2 °F 83.0 °F 55.4 °F 37% 30.08 in 10.0 mi West 16.1 mph - N/A   Clear
6:15 PM 84.2 °F 83.5 °F 57.2 °F 40% 30.07 in 10.0 mi WNW 15.0 mph - N/A   Clear
6:35 PM 82.4 °F 81.7 °F 55.4 °F 39% 30.08 in 10.0 mi WNW 13.8 mph - N/A   Clear
6:55 PM 82.4 °F 81.7 °F 55.4 °F 39% 30.08 in 10.0 mi West 16.1 mph - N/A   Clear
7:15 PM 78.8 °F - 53.6 °F 42% 30.08 in 10.0 mi WNW 13.8 mph 20.7 mph N/A   Clear
7:35 PM 77.0 °F - 53.6 °F 44% 30.08 in 10.0 mi WNW 15.0 mph 19.6 mph N/A   Clear
7:55 PM 75.2 °F - 53.6 °F 47% 30.08 in 10.0 mi WNW 15.0 mph - N/A   Clear
8:15 PM 73.4 °F - 51.8 °F 47% 30.09 in 10.0 mi West 16.1 mph 23.0 mph N/A   Clear
8:35 PM 69.8 °F - 51.8 °F 53% 30.09 in 10.0 mi West 17.3 mph - N/A   Clear
8:55 PM 69.8 °F - 51.8 °F 53% 30.10 in 10.0 mi West 18.4 mph - N/A   Clear
9:15 PM 66.2 °F - 51.8 °F 60% 30.10 in 10.0 mi West 19.6 mph - N/A   Clear
9:35 PM 64.4 °F - 51.8 °F 64% 30.10 in 10.0 mi West 16.1 mph 21.9 mph N/A   Clear
9:55 PM 64.4 °F - 51.8 °F 64% 30.11 in 10.0 mi West 16.1 mph - N/A   Clear
10:15 PM 62.6 °F - 51.8 °F 68% 30.11 in 10.0 mi West 17.3 mph - N/A   Clear
10:35 PM 62.6 °F - 51.8 °F 68% 30.11 in 10.0 mi West 16.1 mph - N/A   Clear
10:55 PM 60.8 °F - 50.0 °F 68% 30.11 in 10.0 mi West 19.6 mph - N/A   Clear
11:15 PM 60.8 °F - 51.8 °F 72% 30.11 in 10.0 mi West 18.4 mph - N/A   Clear
11:35 PM 60.8 °F - 50.0 °F 68% 30.12 in 10.0 mi West 17.3 mph - N/A   Clear
11:55 PM 59.0 °F - 50.0 °F 72% 30.12 in 10.0 mi West 16.1 mph - N/A   Clear